Location: Unspecified
(0.0000°N, 0.0000°E)
Time: 23:40:25
(UTC+00:00)

Kosmos-2266 - Pass Details

Date: 05 June 2023
Orbit: 945 x 1018 km, 82.9° (Epoch: 28 September)

Event Time Altitude Azimuth Distance (km) Brightness Sun altitude
Rises 19:56:56 0° 210° (SSW) 3,650 8.6 -27.1°
Reaches altitude 10° 20:00:02 10° 224° (SW) 2,690 8.0 -27.8°
Maximum altitude 20:04:35 22° 273° (W) 1,953 7.7 -28.8°
Drops below altitude 10° 20:09:06 10° 321° (NW) 2,660 8.5 -29.9°
Sets 20:12:10 0° 336° (NNW) 3,598 9.1 -30.5°
